EA5SW-13 Weather Reports


time (UTC)temp
F
wind
direction
speed
knots
gust
knots
rain 1hr
in
rain 24hr
in
rain mn
in
humidity
%
barometer
mb
20260906192639 83 0.0 0.0 0.00 0.00 0.00 47
20260906191704 83 0.0 0.0 0.00 0.00 0.00 46
20260906190640 84 0.0 0.0 0.00 0.00 0.00 46
20260906185705 84 0.0 0.0 0.00 0.00 0.00 46
20260906184640 84 0.0 0.0 0.00 0.00 0.00 45
20260906183704 85 0.0 0.0 0.00 0.00 0.00 45
20260906182641 85 0.0 0.9 0.00 0.00 0.00 44
20260906181705 85 0.0 0.0 0.00 0.00 0.00 44
20260906180642 85 0.0 0.0 0.00 0.00 0.00 44
20260906175704 86 0.0 0.0 0.00 0.00 0.00 44
20260906174640 86 0.0 0.0 0.00 0.00 0.00 43
20260906173707 87 0.0 0.0 0.00 0.00 0.00 43
20260906172700 87 0.0 0.0 0.00 0.00 0.00 42
20260906171726 88 0.0 0.0 0.00 0.00 0.00 42
20260906170701 88 0.0 0.0 0.00 0.00 0.00 41
20260906165704 89 0.0 0.0 0.00 0.00 0.00 41
20260906164640 90 0.0 0.0 0.00 0.00 0.00 40
20260906163705 91 0.0 0.9 0.00 0.00 0.00 34
20260906162640 91 0.0 0.9 0.00 0.00 0.00 33
20260906161704 91 0.0 0.9 0.00 0.00 0.00 33
20260906160640 92 0.0 0.9 0.00 0.00 0.00 32
20260906155704 93 0.0 0.9 0.00 0.00 0.00 32
20260906154640 93 0.0 0.0 0.00 0.00 0.00 32
20260906153706 92 0.0 0.9 0.00 0.00 0.00 32
20260906152641 92 0.0 0.9 0.00 0.00 0.00 32
20260906151705 93 0.0 0.9 0.00 0.00 0.00 31
20260906150640 94 0.0 0.0 0.00 0.00 0.00 32
20260906145705 94 0.0 0.9 0.00 0.00 0.00 32
20260906144640 95 0.0 0.9 0.00 0.00 0.00 32
20260906143744 95 0.0 0.9 0.00 0.00 0.00 31
20260906142700 95 0.0 0.9 0.00 0.00 0.00 32
20260906141704 96 0.0 0.9 0.00 0.00 0.00 31
20260906140640 0 0.0 0.0 0.00 0.00 0.00
20260906135724 99 0.0 0.9 0.00 0.00 0.00 31
20260906134645 99 0.0 0.9 0.00 0.00 0.00 31
20260906133704 98 0.0 0.9 0.00 0.00 0.00 30
20260906132640 98 0.0 0.9 0.00 0.00 0.00 30
20260906131724 96 0.0 0.9 0.00 0.00 0.00 32
20260906130642 0 0.0 0.0 0.00 0.00 0.00
20260906125724 97 0.0 0.0 0.00 0.00 0.00 31
20260906124640 98 0.0 0.9 0.00 0.00 0.00 30
20260906123726 98 0.0 0.0 0.00 0.00 0.00 26
20260906122640 97 0.0 0.9 0.00 0.00 0.00 25
20260906121724 97 0.0 0.9 0.00 0.00 0.00 23
20260906120641 100 0.0 0.9 0.00 0.00 0.00 21
20260906115306 101 0.0 0.0 0.00 0.00 0.00 22
20260906114240 98 0.0 0.9 0.00 0.00 0.00 28
20260906113305 96 0.0 0.9 0.00 0.00 0.00 26
20260906112241 95 0.0 0.0 0.00 0.00 0.00 28
20260906111304 93 0.0 0.0 0.00 0.00 0.00 26
20260906110242 92 0.0 0.0 0.00 0.00 0.00 27
20260906105704 91 0.0 0.9 0.00 0.00 0.00 27
20260906104640 91 0.0 0.0 0.00 0.00 0.00 27
20260906103704 91 0.0 0.0 0.00 0.00 0.00 29
20260906102641 90 0.0 0.0 0.00 0.00 0.00 31
20260906101705 89 0.0 0.9 0.00 0.00 0.00 32
20260906100641 0 0.0 0.0 0.00 0.00 0.00
20260906095705 87 0.0 0.0 0.00 0.00 0.00 33
20260906094641 86 0.0 0.0 0.00 0.00 0.00 34
20260906093705 85 0.0 0.0 0.00 0.00 0.00 36
20260906092723 84 0.0 0.0 0.00 0.00 0.00 37
20260906091725 83 0.0 0.0 0.00 0.00 0.00 39
20260906090641 83 0.0 0.0 0.00 0.00 0.00 40
20260906085705 82 0.0 0.0 0.00 0.00 0.00 40
20260906084641 82 0.0 0.0 0.00 0.00 0.00 41
20260906083705 81 0.0 0.9 0.00 0.00 0.00 44
20260906082643 80 0.0 0.0 0.00 0.00 0.00 45
20260906081705 80 0.0 0.0 0.00 0.00 0.00 47
20260906080641 79 0.0 0.9 0.00 0.00 0.00 47
20260906075705 79 0.0 0.0 0.00 0.00 0.00 48
20260906074641 78 0.0 0.9 0.00 0.00 0.00 50
20260906073705 77 0.0 0.0 0.00 0.00 0.00 51
20260906072702 76 0.0 0.9 0.00 0.00 0.00 51
20260906071705 75 0.0 0.0 0.00 0.00 0.00 52
20260906070641 74 0.0 0.0 0.00 0.00 0.00 55
20260906065705 73 0.0 0.0 0.00 0.00 0.00 56
20260906064702 73 0.0 0.0 0.00 0.00 0.00 56
20260906063705 72 0.0 0.0 0.00 0.00 0.00 60
20260906062721 72 0.0 0.0 0.00 0.00 0.00 60
20260906061705 72 0.0 0.9 0.00 0.00 0.00 60
20260906060703 72 0.0 0.9 0.00 0.00 0.00 61
20260906055441 72 0.0 0.9 0.00 0.00 0.00 62
20260906054504 72 0.0 0.9 0.00 0.00 0.00 63
20260906053443 73 0.0 0.9 0.00 0.00 0.00 60
20260906052525 73 0.0 0.9 0.00 0.00 0.00 60
20260906051441 73 0.0 0.0 0.00 0.00 0.00 61
20260906050547 72 0.0 0.0 0.00 0.00 0.00 64
20260906045441 72 0.0 0.0 0.00 0.00 0.00 64
20260906044505 72 0.0 0.0 0.00 0.00 0.00 64
20260906043441 73 0.0 0.0 0.00 0.00 0.00 61
20260906042505 73 0.0 0.0 0.00 0.00 0.00 61
20260906041443 73 0.0 0.0 0.00 0.00 0.00 62
20260906040506 0 0.0 0.0 0.00 0.00 0.00
20260906035306 73 0.0 0.0 0.00 0.00 0.00 63
20260906034241 73 0.0 0.0 0.00 0.00 0.00 64
20260906033305 73 0.0 0.0 0.00 0.00 0.00 64
20260906032241 73 0.0 0.0 0.00 0.00 0.00 65
20260906031306 73 0.0 0.0 0.00 0.00 0.00 65
20260906030243 74 0.0 0.0 0.00 0.00 0.00 65
20260906025707 74 0.0 0.0 0.00 0.00 0.00 65
20260906024641 74 0.0 0.0 0.00 0.00 0.00 65
20260906023725 75 0.0 0.0 0.00 0.00 0.00 65
20260906022641 75 0.0 0.0 0.00 0.00 0.00 65
20260906021705 75 0.0 0.0 0.00 0.00 0.00 66
20260906020702 0 0.0 0.0 0.00 0.00 0.00
20260906015705 75 0.0 0.0 0.00 0.00 0.00 69
20260906014642 75 0.0 0.0 0.00 0.00 0.00 70
20260906013705 74 0.0 0.0 0.00 0.00 0.00 70
20260906012642 75 0.0 0.0 0.00 0.00 0.00 70
20260906011706 75 0.0 0.0 0.00 0.00 0.00 70
20260906010721 76 0.0 0.0 0.00 0.00 0.00 69
20260906005705 76 0.0 0.0 0.00 0.00 0.00 68
20260906004642 76 0.0 0.0 0.00 0.00 0.00 67
20260906003705 77 0.0 0.0 0.00 0.00 0.00 67
20260906002641 77 0.0 0.9 0.00 0.00 0.00 68
20260906001705 77 0.0 0.0 0.00 0.00 0.00 67
20260906000641 0 0.0 0.0 0.00 0.00 0.00
20260905235725 77 0.0 0.0 0.00 0.00 0.00 67
20260905234642 78 0.0 0.0 0.00 0.00 0.00 67
20260905233706 78 0.0 0.0 0.00 0.00 0.00 67
20260905232642 78 0.0 0.0 0.00 0.00 0.00 67
20260905231705 78 0.0 0.0 0.00 0.00 0.00 68
20260905230642 78 0.0 0.0 0.00 0.00 0.00 68
20260905225727 78 0.0 0.0 0.00 0.00 0.00 69
20260905224641 78 0.0 0.0 0.00 0.00 0.00 69
20260905223705 79 0.0 0.0 0.00 0.00 0.00 69
20260905222642 79 0.0 0.0 0.00 0.00 0.00 69
20260905221706 79 0.0 0.0 0.00 0.00 0.00 68
20260905220643 0 0.0 0.0 0.00 0.00 0.00
20260905215706 80 0.0 0.0 0.00 0.00 0.00 66
20260905214642 80 0.0 0.0 0.00 0.00 0.00 65
20260905213705 81 0.0 0.0 0.00 0.00 0.00 65
20260905212642 81 0.0 0.0 0.00 0.00 0.00 65
20260905211706 81 0.0 0.0 0.00 0.00 0.00 65
20260905210642 81 0.0 0.0 0.00 0.00 0.00 68
20260905205706 81 0.0 0.0 0.00 0.00 0.00 69
20260905204743 81 0.0 0.0 0.00 0.00 0.00 70
20260905203706 81 0.0 0.0 0.00 0.00 0.00 70
20260905202642 81 0.0 0.0 0.00 0.00 0.00 71
20260905201705 81 0.0 0.0 0.00 0.00 0.00 71
20260905200644 0 0.0 0.0 0.00 0.00 0.00
20260905195706 82 0.0 0.0 0.00 0.00 0.00 69
20260905194702 82 0.0 0.0 0.00 0.00 0.00 68
20260905193706 82 0.0 0.0 0.00 0.00 0.00 66